Stations météo

réclame
Mon MeteoGroup
Stekenjokk, Suède (2102): Température de l'air & dewpoint: 12.01.2020 20:00:00 - 18.01.2020 20:00:00 (CET)
Date & Time tt [°C] td [°C]
18.01.2020 20:00:00 - -
18.01.2020 19:00:00 -6,5 -7,2
18.01.2020 18:00:00 -6,9 -7,7
18.01.2020 17:00:00 -7,2 -8,0
18.01.2020 16:00:00 -7,6 -8,4
18.01.2020 15:00:00 -7,9 -8,8
18.01.2020 14:00:00 -8,2 -9,1
18.01.2020 13:00:00 -8,4 -9,3
18.01.2020 12:00:00 -8,5 -9,4
18.01.2020 11:00:00 -8,5 -9,4
18.01.2020 10:00:00 -8,1 -9,0
18.01.2020 09:00:00 -7,7 -8,5
18.01.2020 08:00:00 -7,2 -8,0
18.01.2020 07:00:00 -6,6 -7,3
18.01.2020 06:00:00 -6,3 -7,0
18.01.2020 05:00:00 -6,1 -6,8
18.01.2020 04:00:00 -5,1 -5,6
18.01.2020 03:00:00 -5,0 -5,5
18.01.2020 02:00:00 -5,0 -5,5
18.01.2020 01:00:00 -4,9 -5,4
18.01.2020 00:00:00 -4,3 -4,7
17.01.2020 23:00:00 -4,2 -4,6
17.01.2020 22:00:00 -4,3 -4,7
17.01.2020 21:00:00 -4,3 -4,7
17.01.2020 20:00:00 -4,2 -4,6
17.01.2020 19:00:00 -4,5 -5,0
17.01.2020 18:00:00 -4,5 -4,9
17.01.2020 17:00:00 -4,3 -4,7
17.01.2020 16:00:00 -4,2 -4,6
17.01.2020 15:00:00 -4,0 -4,4
17.01.2020 14:00:00 -3,1 -3,4
17.01.2020 13:00:00 -2,9 -3,2
17.01.2020 12:00:00 -2,8 -3,1
17.01.2020 11:00:00 -2,5 -2,8
17.01.2020 10:00:00 -2,2 -2,3
17.01.2020 09:00:00 -2,0 -2,1
17.01.2020 08:00:00 -2,0 -2,1
17.01.2020 07:00:00 -2,1 -2,2
17.01.2020 06:00:00 -2,3 -2,4
17.01.2020 05:00:00 -2,3 -2,4
17.01.2020 04:00:00 -2,2 -2,5
17.01.2020 03:00:00 -2,0 -2,1
17.01.2020 02:00:00 -2,0 -2,1
17.01.2020 01:00:00 -2,0 -2,1
17.01.2020 00:00:00 -2,1 -2,2
16.01.2020 23:00:00 -2,1 -2,2
16.01.2020 22:00:00 -2,1 -2,2
16.01.2020 21:00:00 -2,2 -2,3
16.01.2020 20:00:00 -2,1 -2,2
16.01.2020 19:00:00 -2,2 -2,3
16.01.2020 18:00:00 -2,4 -2,7
16.01.2020 17:00:00 -3,1 -3,4
16.01.2020 16:00:00 -3,6 -4,0
16.01.2020 15:00:00 -4,4 -4,8
16.01.2020 14:00:00 -5,5 -6,0
16.01.2020 13:00:00 -5,7 -6,4
16.01.2020 12:00:00 -5,8 -6,5
16.01.2020 11:00:00 -5,9 -6,6
16.01.2020 10:00:00 -5,7 -6,4
16.01.2020 09:00:00 -5,8 -6,5
16.01.2020 08:00:00 -6,3 -7,0
16.01.2020 07:00:00 -6,2 -6,9
16.01.2020 06:00:00 -6,1 -6,8
16.01.2020 05:00:00 -5,9 -6,6
16.01.2020 04:00:00 -5,5 -6,0
16.01.2020 03:00:00 -4,7 -5,2
16.01.2020 02:00:00 -4,3 -4,8
16.01.2020 01:00:00 -4,0 -4,4
16.01.2020 00:00:00 -4,1 -4,5
15.01.2020 23:00:00 -4,1 -4,5
15.01.2020 22:00:00 -4,1 -4,5
15.01.2020 21:00:00 -4,5 -4,9
15.01.2020 20:00:00 -4,7 -5,2
15.01.2020 19:00:00 -5,1 -5,6
15.01.2020 18:00:00 -5,3 -5,8
15.01.2020 17:00:00 -5,5 -6,0
15.01.2020 16:00:00 -5,7 -6,4
15.01.2020 15:00:00 -5,8 -6,5
15.01.2020 14:00:00 -5,8 -6,5
15.01.2020 13:00:00 -5,9 -6,6
15.01.2020 12:00:00 -6,0 -6,7
15.01.2020 11:00:00 -6,1 -6,8
15.01.2020 10:00:00 -6,8 -7,6
15.01.2020 09:00:00 -7,1 -7,9
15.01.2020 08:00:00 -6,9 -7,7
15.01.2020 07:00:00 -6,9 -7,7
15.01.2020 06:00:00 -6,8 -7,5
15.01.2020 05:00:00 -6,2 -6,9
15.01.2020 04:00:00 -5,4 -6,1
15.01.2020 03:00:00 -5,2 -5,7
15.01.2020 02:00:00 -5,1 -5,6
15.01.2020 01:00:00 -4,7 -5,2
15.01.2020 00:00:00 -4,1 -4,5
14.01.2020 23:00:00 -3,8 -4,2
14.01.2020 22:00:00 -3,6 -4,0
14.01.2020 21:00:00 -3,6 -4,0
14.01.2020 20:00:00 -3,8 -4,2
14.01.2020 19:00:00 -3,9 -4,3
14.01.2020 18:00:00 -3,9 -4,3
14.01.2020 17:00:00 -4,1 -4,5
14.01.2020 16:00:00 -4,2 -4,6
14.01.2020 15:00:00 -4,5 -5,0
14.01.2020 14:00:00 -4,7 -5,2
14.01.2020 13:00:00 -4,9 -5,4
14.01.2020 12:00:00 -5,1 -5,6
14.01.2020 11:00:00 -5,6 -6,3
14.01.2020 10:00:00 -6,1 -6,8
14.01.2020 09:00:00 -7,3 -8,1
14.01.2020 08:00:00 -7,3 -8,1
14.01.2020 07:00:00 -8,2 -9,0
14.01.2020 06:00:00 -7,5 -8,3
14.01.2020 05:00:00 -6,7 -7,5
14.01.2020 04:00:00 -5,7 -6,4
14.01.2020 03:00:00 -5,3 -5,8
14.01.2020 02:00:00 -5,0 -5,5
14.01.2020 01:00:00 -4,7 -5,2
14.01.2020 00:00:00 -4,1 -4,5
13.01.2020 23:00:00 -4,2 -4,6
13.01.2020 22:00:00 -4,1 -4,5
13.01.2020 21:00:00 -3,9 -4,3
13.01.2020 20:00:00 -3,8 -4,2
13.01.2020 19:00:00 -3,8 -4,2
13.01.2020 18:00:00 -3,8 -4,2
13.01.2020 17:00:00 -3,7 -4,1
13.01.2020 16:00:00 -3,8 -4,2
13.01.2020 15:00:00 -4,1 -4,5
13.01.2020 14:00:00 -4,4 -4,8
13.01.2020 13:00:00 -4,5 -5,0
13.01.2020 12:00:00 -4,2 -4,6
13.01.2020 11:00:00 -4,3 -4,7
13.01.2020 10:00:00 -4,5 -5,0
13.01.2020 09:00:00 -4,5 -5,0
13.01.2020 08:00:00 -4,6 -5,1
13.01.2020 07:00:00 -4,6 -5,1
13.01.2020 06:00:00 -4,8 -5,3
13.01.2020 05:00:00 -4,9 -5,4
13.01.2020 04:00:00 -4,9 -5,4
13.01.2020 03:00:00 -4,9 -5,4
13.01.2020 02:00:00 -4,9 -5,4
13.01.2020 01:00:00 -5,0 -5,5
13.01.2020 00:00:00 -5,0 -5,5
12.01.2020 23:00:00 -5,0 -5,5
12.01.2020 22:00:00 -5,0 -5,5
12.01.2020 21:00:00 -4,9 -5,4
12.01.2020 20:00:00 -4,9 -5,4

tt = Température de l'air
td = dewpoint

stations d'obs. à proximité